GFSNIL_con_3kmhel_000.txt.gz
Helicity
199 206 199 180 162 132 102 82 75 69 69 83 92 97 101 95 92 87 89 87 100 121
235 251 240 226 196 159 134 120 119 109 105 106 107 104 103 97 92 92 90 91 99 128
255 263 252 231 206 182 165 151 142 124 116 108 109 116 112 108 101 98 104 101 126 141
267 264 250 231 211 192 170 157 135 120 119 117 131 127 123 113 95 102 108 120 145 158
264 251 247 236 216 183 176 152 134 122 122 135 139 126 119 108 101 109 133 150 163 150
248 244 240 233 207 195 178 143 128 133 148 149 139 122 112 104 111 128 151 152 151 147
229 233 233 226 212 193 158 135 145 159 153 142 124 106 95 113 131 150 150 155 165 162
231 237 240 230 202 172 145 150 159 164 152 130 109 95 115 132 142 149 169 178 178 180
239 241 227 206 181 160 172 173 171 160 127 110 105 114 142 153 165 172 178 187 210 230
223 214 200 183 178 178 172 170 157 129 112 113 121 128 154 168 173 172 174 193 209 200
197 199 187 175 167 163 163 150 137 119 109 110 115 143 169 163 166 166 178 193 183 174
193 179 157 159 170 165 155 137 118 103 100 119 119 126 144 149 159 153 153 156 151 133
152 148 156 163 175 137 123 100 102 107 116 105 125 103 116 135 144 149 157 154 151 74
150 160 158 155 134 115 106 102 106 106 111 107 101 109 85 111 153 156 152 160 142 129

GFSNIL_con_3kmhel_006.txt.gz
Helicity
234 206 184 153 156 159 156 148 146 170 167 150 128 108 97 86 90 104 119 116 114 113
193 197 189 189 189 183 179 179 202 201 190 172 147 134 119 109 112 117 121 115 110 118
206 220 225 225 218 213 220 224 225 217 206 181 163 154 138 122 121 130 127 116 112 128
255 258 256 250 234 238 241 235 237 222 207 200 183 157 141 137 126 137 122 115 131 139
272 269 270 261 256 245 251 253 242 231 225 199 168 151 149 141 131 123 124 129 142 144
262 267 271 265 253 263 262 260 258 243 223 186 162 149 134 130 123 121 127 130 140 138
251 257 254 250 262 266 265 265 252 234 194 165 145 136 130 125 123 133 139 134 140 150
249 250 256 271 272 270 270 258 240 205 173 161 147 127 109 114 137 144 130 131 134 119
245 257 273 276 267 262 265 244 203 181 174 161 125 86 97 119 144 144 136 134 116 117
248 273 272 257 252 255 235 197 183 174 148 127 104 92 105 106 146 152 133 113 125 153
249 256 247 249 244 217 185 176 158 140 126 117 109 107 96 98 151 141 122 123 153 165
223 234 233 231 202 171 169 154 131 117 113 110 99 92 107 118 132 133 133 160 142 129
232 220 209 179 168 146 126 127 118 107 104 86 104 95 94 97 126 144 158 125 124 89
220 199 168 152 126 134 129 118 110 98 96 107 108 103 82 97 141 149 147 156 150 112

GFSNIL_con_3kmhel_009.txt.gz
Helicity
219 238 254 204 178 174 170 159 152 153 139 124 114 108 100 84 76 71 71 73 83 96
240 293 256 210 201 200 191 179 169 156 149 143 138 127 113 93 88 92 101 105 104 99
238 274 258 231 224 213 208 194 178 175 170 161 149 139 119 113 114 112 116 114 104 100
279 269 246 241 231 223 212 197 199 189 185 170 159 142 139 132 117 112 116 117 123 117
280 271 271 256 239 222 229 222 211 204 190 172 163 153 142 121 114 125 130 125 129 129
269 267 263 256 245 240 235 232 222 205 190 175 157 147 125 110 119 124 120 125 126 130
238 243 250 255 248 244 239 230 216 202 175 162 148 123 113 111 110 120 120 128 128 132
235 246 257 257 257 260 251 229 202 174 163 150 128 120 113 109 116 122 132 132 127 128
240 246 254 260 262 257 229 202 176 167 154 143 129 110 107 114 132 138 141 126 119 137
236 251 251 245 239 217 196 164 159 152 144 133 113 103 111 113 136 141 129 128 128 128
233 237 230 222 203 179 157 155 148 144 124 121 112 106 117 115 130 126 129 124 123 121
211 208 186 182 167 153 147 143 136 121 128 118 106 112 109 116 125 123 128 129 101 96
171 167 168 153 148 130 128 135 127 128 105 88 104 101 100 106 121 133 122 79 82 71
172 162 142 132 126 130 136 132 115 100 108 106 99 97 96 113 134 112 103 115 106 105

GFSNIL_con_3kmhel_012.txt.gz
Helicity
250 217 258 216 180 174 171 160 146 139 124 111 94 78 66 67 69 68 72 81 84 92
240 197 220 224 208 202 187 172 158 145 133 116 98 87 82 79 77 77 103 107 106 111
226 162 270 244 225 202 193 179 169 153 137 122 110 99 90 80 99 102 130 133 130 126
252 250 298 236 228 218 199 183 172 159 146 129 117 109 92 107 115 130 145 143 144 124
269 288 274 246 232 203 204 195 182 168 155 140 132 119 117 120 139 144 141 143 133 118
261 274 266 243 229 216 207 198 187 170 160 152 139 128 123 140 138 136 133 127 132 128
281 267 247 229 224 219 205 190 177 178 169 158 143 130 146 132 130 128 121 118 117 126
299 265 241 234 235 225 206 185 184 172 166 149 137 159 139 138 128 113 118 112 115 135
289 254 232 226 219 210 192 191 174 170 154 145 149 148 141 131 121 114 109 117 136 148
241 237 218 200 195 190 191 173 162 150 144 143 139 146 135 116 100 115 129 139 143 154
216 209 187 183 187 190 164 158 144 141 134 134 142 124 108 95 95 124 138 138 141 168
176 174 176 181 175 164 145 137 134 128 137 137 115 106 97 105 116 129 125 147 135 135
170 171 168 165 158 142 134 129 128 133 108 110 94 101 102 109 110 139 162 126 94 88
171 172 161 145 130 124 132 128 121 105 95 90 106 103 99 109 135 148 128 105 104 91

GFSNIL_con_3kmhel_015.txt.gz
Helicity
299 282 308 335 371 311 258 189 157 155 143 125 107 86 69 62 58 68 73 90 110 114
284 297 350 322 281 260 225 188 174 162 142 128 109 91 82 74 71 81 104 103 107 114
294 303 315 297 295 284 217 180 177 161 146 128 116 104 90 90 104 105 113 128 126 138
329 318 344 304 319 271 203 196 183 167 146 129 115 106 101 115 116 108 116 140 148 154
355 342 344 299 297 243 224 211 193 164 148 135 130 123 123 116 124 121 135 147 168 153
402 388 333 323 286 262 244 214 185 170 162 152 134 139 133 136 131 139 141 145 145 141
400 370 331 305 288 249 210 187 180 178 176 162 149 154 143 133 132 129 141 131 125 128
357 362 290 315 268 214 194 191 186 178 172 156 175 170 159 144 134 133 125 126 129 141
335 320 288 247 201 187 188 182 183 179 160 171 154 177 145 139 135 115 115 139 156 172
243 255 219 207 193 199 176 171 166 156 161 143 150 170 141 122 102 107 126 152 158 151
263 222 227 218 199 183 166 160 153 140 133 141 144 150 114 95 85 119 129 141 130 149
209 212 197 201 190 164 151 143 125 138 140 134 113 142 105 114 119 123 116 137 150 152
197 202 186 164 162 151 139 144 135 130 107 110 92 122 130 123 98 121 167 170 153 152
178 169 160 150 138 137 137 124 107 87 84 94 114 118 116 116 127 154 164 159 159 139

GFSNIL_con_3kmhel_018.txt.gz
Helicity
419 439 426 414 429 426 447 421 365 280 248 200 165 130 108 91 80 81 69 70 78 91
441 432 369 372 366 448 446 417 323 280 237 185 159 126 104 94 86 88 76 76 84 103
440 455 357 323 390 431 435 303 312 282 229 194 161 135 122 106 102 100 85 95 120 127
394 311 291 348 402 414 384 316 296 273 214 177 147 129 110 107 114 80 96 114 128 142
321 298 337 441 471 404 356 312 280 238 198 169 161 143 136 126 125 117 117 120 149 154
320 370 446 469 432 398 374 314 269 225 197 173 156 146 148 143 138 147 134 139 159 157
369 408 450 443 419 418 328 271 245 227 205 171 147 147 145 149 157 157 156 156 150 152
406 447 474 487 431 330 305 279 234 200 161 130 135 141 160 165 166 162 160 152 147 167
497 458 515 398 347 335 253 210 191 169 133 145 140 156 160 159 156 150 145 148 150 158
570 587 379 293 273 210 198 151 142 141 152 131 145 150 164 148 146 130 124 133 135 143
380 201 63 123 145 158 164 169 147 149 134 143 141 159 157 148 131 129 121 115 128 150
241 123 160 172 188 177 157 165 130 120 152 167 170 137 146 142 135 119 117 140 155 162
101 77 152 165 157 174 134 124 159 151 129 130 120 136 124 112 108 116 136 145 146 141
151 135 142 146 122 127 159 140 117 111 103 103 103 98 96 116 113 112 128 137 147 154

GFSNIL_con_3kmhel_021.txt.gz
Helicity
543 555 458 473 524 497 521 507 441 399 372 353 319 270 214 155 119 97 85 79 80 91
546 461 418 422 408 431 507 447 406 430 438 401 268 251 200 131 109 95 83 73 85 99
496 419 397 376 384 409 468 429 478 429 407 327 276 227 170 130 105 98 88 84 97 109
427 381 339 318 339 389 413 442 456 373 381 189 231 181 162 122 98 94 90 108 102 106
372 372 310 271 343 357 450 480 456 366 312 250 212 172 132 119 112 100 96 107 95 113
362 317 296 354 375 402 464 384 324 282 288 235 205 169 150 136 131 122 106 112 122 135
333 343 398 407 417 405 422 364 348 296 282 219 181 171 157 143 129 133 150 164 175 150
377 409 464 457 439 470 490 336 300 282 255 204 174 148 146 149 159 160 162 167 168 164
493 497 494 509 391 454 322 343 283 224 206 170 150 167 153 156 150 160 169 160 151 135
477 526 468 613 543 363 255 190 170 145 125 172 161 160 168 167 164 169 156 131 138 148
471 426 421 361 253 136 173 120 128 138 160 146 123 155 163 185 162 148 134 136 164 176
252 274 251 190 159 66 103 100 127 129 135 142 129 143 147 150 137 135 134 147 157 154
153 83 71 62 32 44 100 125 142 120 110 115 110 119 111 102 109 127 127 122 135 140
28 39 58 73 92 109 131 113 116 128 127 123 101 94 100 97 105 95 115 126 146 153

GFSNIL_con_3kmhel_024.txt.gz
Helicity
353 456 478 497 508 550 589 570 576 554 526 431 386 334 361 283 248 189 160 124 105 95
406 485 484 508 509 541 532 511 530 489 530 415 375 363 322 321 241 194 155 118 101 98
421 453 476 494 448 424 454 426 488 537 515 408 428 446 326 358 206 228 145 113 104 106
392 422 423 383 398 427 398 422 496 532 468 405 447 380 336 288 174 203 136 123 91 82
405 401 339 344 356 357 385 402 493 520 455 414 435 303 257 207 186 168 124 101 99 77
346 328 306 293 323 331 393 412 447 457 421 399 348 320 255 240 182 178 138 122 99 99
299 275 304 329 325 345 363 427 441 517 482 334 295 277 237 215 200 153 141 142 141 146
404 385 406 390 380 363 387 423 440 463 402 329 356 260 159 144 154 155 142 157 177 176
462 457 475 491 518 504 480 466 450 391 284 243 228 192 156 137 145 171 157 161 193 179
496 474 525 480 450 435 461 432 390 316 223 180 172 141 158 145 143 150 167 176 171 176
399 398 346 360 414 391 328 337 346 199 158 119 107 92 109 151 157 154 153 147 149 159
182 198 228 288 248 201 205 141 96 60 55 74 93 122 120 127 133 142 133 132 149 154
149 128 167 110 161 107 76 46 37 78 87 87 87 88 98 105 104 121 129 129 156 180
103 100 70 42 32 23 59 85 101 115 116 124 103 84 87 88 90 85 115 146 163 177

GFSNIL_con_3kmhel_030.txt.gz
Helicity
98 166 196 251 276 301 318 345 394 454 401 418 483 490 443 439 404 396 418 446 186 236
86 114 150 182 220 248 276 310 385 439 466 430 459 462 493 510 465 459 478 425 339 231
112 90 124 174 207 233 275 327 352 403 453 459 455 456 524 549 484 465 529 466 467 313
132 79 107 147 186 232 283 282 305 345 399 435 439 458 518 561 558 550 470 483 477 324
135 97 100 115 158 203 238 250 260 307 342 389 424 458 534 619 575 594 402 493 439 358
113 81 83 121 145 167 186 205 224 244 315 379 433 523 595 597 568 460 483 358 531 255
56 51 91 138 179 193 191 201 244 318 372 431 501 582 628 607 569 457 394 485 374 366
48 63 155 218 237 300 319 338 379 407 433 466 533 523 535 508 402 403 410 348 262 229
147 183 236 252 277 311 314 337 339 328 369 426 439 418 424 409 442 413 378 258 155 105
168 191 202 225 266 271 306 327 325 335 348 380 403 281 300 279 257 205 165 111 99 95
129 147 166 199 210 223 221 259 260 280 297 310 200 236 201 194 162 120 89 74 104 126
-6 134 167 203 201 257 269 240 256 210 218 204 199 144 78 48 56 90 102 106 115 98
51 107 140 166 183 159 157 138 133 144 101 80 54 34 28 61 79 99 94 81 86 100
9 21 28 45 35 25 39 57 63 53 40 14 30 79 75 70 78 81 87 103 110 109

GFSNIL_con_3kmhel_033.txt.gz
Helicity
169 168 148 146 211 245 240 225 197 271 335 335 344 355 388 399 357 347 362 325 327 329
151 153 153 126 141 177 172 182 186 225 262 296 330 340 384 395 377 375 394 401 401 397
194 180 163 153 127 121 132 146 157 152 182 234 280 320 339 403 426 393 423 479 509 488
253 236 214 188 154 114 125 136 136 127 154 184 240 280 318 342 390 529 459 502 566 589
223 188 156 164 142 97 97 131 145 142 146 145 184 254 288 338 404 549 547 627 661 667
193 185 170 185 111 76 83 131 140 131 134 163 223 267 325 397 474 529 587 616 612 538
109 110 93 83 156 86 77 143 140 153 187 208 265 341 411 470 543 596 604 561 527 501
78 94 110 101 131 129 187 234 234 242 275 305 319 348 447 552 566 544 483 479 467 369
64 81 120 144 181 226 222 219 222 220 251 307 325 347 431 425 381 361 353 283 278 208
-3 99 129 143 159 177 191 210 218 228 246 311 273 231 213 231 312 295 242 211 183 171
-13 79 109 121 140 152 164 179 206 229 201 237 147 191 201 217 214 206 156 112 83 88
7 12 33 63 144 146 163 186 207 218 201 209 172 120 157 121 82 72 89 95 84 87
6 58 92 59 85 139 118 176 137 143 116 71 59 56 41 47 57 70 89 110 109 126
-11 -2 2 12 11 22 38 37 56 55 52 31 15 -3 22 51 84 85 93 110 116 112

GFSNIL_con_3kmhel_036.txt.gz
Helicity
180 168 154 154 172 164 168 174 152 163 154 168 167 191 205 283 309 331 330 302 351 328
188 174 162 146 130 141 126 136 105 105 134 146 164 168 192 264 253 270 303 317 343 398
216 195 192 172 173 138 132 141 129 109 113 148 189 208 216 225 218 245 320 356 406 479
226 224 219 219 178 172 162 165 145 116 105 116 139 184 226 227 254 242 275 340 453 498
154 187 191 193 186 160 146 129 117 109 89 83 100 122 163 203 239 251 263 291 360 447
153 178 204 194 148 130 134 150 128 123 101 82 93 97 126 178 229 320 376 424 461 530
178 189 145 135 126 89 26 43 60 61 103 134 120 133 194 271 341 371 398 454 459 418
92 50 43 67 103 140 151 79 80 166 122 143 175 175 215 285 317 368 410 387 363 320
-5 -2 -2 21 34 54 50 51 74 43 101 153 153 139 168 239 306 310 287 275 267 250
1 17 11 28 79 115 139 140 141 149 153 161 135 135 160 174 225 235 279 214 173 210
35 47 39 27 77 122 143 148 161 198 202 183 143 152 157 212 211 212 176 144 145 130
33 44 37 61 79 103 108 134 163 193 204 186 161 177 167 126 102 119 114 67 64 85
51 74 75 75 105 95 97 127 147 149 113 95 85 76 57 33 21 49 58 67 63 71
-16 -13 -6 2 6 24 37 44 38 22 11 8 13 28 42 28 28 44 48 68 83 82

GFSNIL_con_3kmhel_039.txt.gz
Helicity
202 183 176 177 191 211 208 178 149 140 166 180 185 185 201 238 283 314 338 338 420 432
253 241 225 207 198 191 173 191 190 199 146 138 139 165 207 240 256 332 322 319 327 322
186 200 200 196 185 213 214 142 181 186 192 172 141 146 194 234 267 288 279 283 285 373
120 143 158 180 204 204 183 182 207 213 205 203 163 168 185 217 254 256 274 352 363 406
128 154 164 152 132 122 135 162 173 191 203 191 179 146 122 138 186 206 281 279 279 278
145 171 188 173 165 166 162 152 143 132 125 118 132 129 125 129 165 191 214 202 245 283
150 150 162 157 153 136 154 136 106 103 113 195 168 203 186 202 225 259 266 253 232 248
111 121 125 101 86 80 98 82 126 107 122 148 91 66 97 96 147 172 225 247 240 239
99 94 84 58 51 56 90 104 104 85 57 60 53 -6 66 123 147 187 181 216 230 225
80 77 67 68 85 105 100 79 89 88 87 111 98 114 152 188 209 191 194 183 177 173
95 88 81 84 92 99 108 131 111 131 173 211 188 160 174 206 212 179 166 147 115 95
70 93 101 93 95 93 97 99 89 89 132 175 165 154 161 136 111 107 161 58 58 40
-5 4 23 48 83 89 106 115 88 74 39 49 49 67 65 30 14 7 -3 19 43 75
-10 -6 -4 -3 -5 -1 6 13 12 11 17 25 36 42 46 31 22 41 57 63 76 98

GFSNIL_con_3kmhel_045.txt.gz
Helicity
173 161 160 157 164 181 183 189 232 256 213 147 114 119 133 161 162 219 242 271 349 354
179 194 182 181 167 149 159 175 186 188 223 244 178 135 127 155 164 182 224 229 263 324
177 189 160 134 128 120 127 147 161 161 173 204 222 220 233 240 238 210 210 225 230 297
161 179 143 99 115 110 129 135 163 174 178 182 184 178 177 188 201 202 204 200 195 285
128 143 127 108 125 159 151 144 149 160 169 163 158 149 140 158 156 142 143 170 187 225
124 135 132 127 125 116 93 95 100 92 105 110 102 108 120 137 158 152 146 161 185 200
144 137 131 131 120 94 70 63 69 76 85 100 104 120 137 155 135 153 183 164 147 190
106 123 132 121 114 105 80 76 81 92 102 89 84 83 101 124 128 130 146 157 139 144
102 121 113 100 100 96 105 114 103 95 99 91 84 126 129 133 116 109 106 113 145 192
70 71 83 102 109 113 91 82 104 111 105 98 82 94 95 94 63 68 79 126 125 137
39 54 65 72 71 67 59 62 64 82 62 38 21 35 37 46 27 36 41 52 59 54
23 17 17 19 1 -4 12 16 4 -2 12 18 8 36 48 46 42 53 58 67 67 72
-11 -15 -8 -11 -11 -7 1 5 0 8 -5 10 1 38 44 44 41 59 65 63 73 91
-11 -8 -4 -6 -3 -4 -10 0 8 4 -7 -3 11 32 59 68 62 68 74 84 88 91

GFSNIL_con_3kmhel_048.txt.gz
Helicity
133 126 131 133 134 143 155 165 190 208 212 195 167 129 109 112 128 141 155 157 195 226
141 152 144 149 135 120 128 136 145 156 171 190 202 180 149 144 150 130 118 127 146 178
146 154 152 127 130 123 117 120 123 127 131 152 175 191 193 179 184 188 167 153 136 158
152 157 152 132 99 100 101 116 130 135 140 152 165 169 167 172 176 175 179 188 179 167
133 139 138 121 123 109 112 129 138 129 128 144 152 150 140 127 138 155 169 167 161 171
129 115 127 125 123 119 133 147 136 125 128 122 112 110 102 103 130 160 143 130 153 170
123 137 148 135 123 135 133 125 117 113 93 82 77 88 102 117 129 141 133 130 138 151
106 121 127 133 147 139 134 122 102 104 111 96 100 93 100 124 149 154 152 155 141 147
84 103 114 128 126 119 126 129 143 143 119 106 85 103 116 130 133 119 103 107 121 146
69 94 103 102 110 125 138 146 138 132 108 87 78 67 52 43 24 29 31 26 37 44
38 49 56 67 84 97 97 88 75 85 79 54 46 50 45 42 14 17 19 32 42 54
16 25 33 39 32 34 36 45 45 40 38 35 20 41 40 23 19 30 29 36 51 67
9 15 20 24 25 22 30 34 20 13 17 30 30 41 39 30 21 31 38 47 61 78
10 10 16 24 25 21 19 19 17 19 19 22 30 32 46 44 30 35 45 55 60 67

GFSNIL_con_3kmhel_051.txt.gz
Helicity
96 83 80 90 101 115 119 123 145 158 164 171 185 173 166 177 172 151 130 123 130 169
103 106 107 130 128 119 126 130 148 156 170 176 172 172 175 179 187 157 136 130 146 150
117 143 157 158 141 127 129 136 142 149 154 160 164 166 161 165 182 183 198 200 209 186
130 143 149 144 133 117 113 124 128 130 138 159 177 185 168 168 170 158 142 135 131 173
145 143 139 131 122 110 114 120 127 138 163 182 182 180 176 158 133 122 104 125 142 150
144 138 132 124 109 122 126 139 150 171 174 159 157 156 154 143 142 139 146 151 139 119
139 134 129 130 139 150 145 142 153 145 128 122 138 149 157 157 156 161 160 143 137 132
109 105 111 127 147 147 147 134 122 121 132 128 128 120 126 138 144 146 145 152 145 153
87 92 101 103 107 117 120 118 122 127 121 127 118 130 121 99 84 93 83 66 64 67
68 82 87 95 99 106 115 127 132 130 121 126 118 117 96 83 46 38 28 30 35 37
50 55 64 73 78 90 100 92 83 93 102 90 74 87 77 71 35 37 40 47 40 42
32 36 43 48 60 54 44 45 46 52 71 70 54 64 64 50 37 39 43 43 44 48
35 32 31 36 39 25 27 33 41 55 49 42 47 48 46 41 35 47 49 51 63 76
42 49 46 37 35 34 34 30 23 32 29 37 37 32 48 51 39 40 44 58 68 74

GFSNIL_con_3kmhel_054.txt.gz
Helicity
102 88 90 102 107 120 118 117 134 148 165 177 182 183 181 184 185 168 157 147 175 156
100 96 104 120 126 124 126 121 137 150 168 184 194 196 199 217 243 245 258 254 229 193
102 119 131 143 154 148 135 133 135 142 150 155 160 168 175 187 211 225 239 228 233 237
103 125 144 153 151 140 131 133 134 136 138 144 151 159 168 193 198 206 212 230 195 177
115 137 155 161 154 142 130 129 132 137 146 150 160 178 173 169 176 172 176 161 144 153
132 148 156 154 144 135 127 121 142 150 159 154 161 152 163 165 169 172 174 180 182 175
130 148 157 152 144 133 123 123 135 130 126 121 124 135 138 147 161 171 173 172 174 170
106 116 123 131 132 132 131 121 113 121 126 123 120 110 114 128 139 134 133 141 146 145
91 103 102 110 119 122 121 114 115 129 120 127 116 119 111 97 78 75 72 65 61 59
85 89 98 103 107 107 113 107 119 122 118 112 105 109 92 78 60 62 62 50 42 56
59 65 77 91 99 99 102 106 95 93 84 77 67 76 80 70 41 42 42 49 50 57
49 53 62 68 72 80 85 69 65 57 54 53 43 55 55 48 40 49 49 45 39 43
48 52 60 58 69 61 55 53 39 54 47 45 36 41 50 46 39 50 46 46 55 64
51 47 53 66 63 57 53 43 43 38 38 39 43 35 45 55 48 49 50 54 52 54

GFSNIL_con_3kmhel_060.txt.gz
Helicity
139 132 133 134 135 138 146 152 150 144 137 133 132 131 130 132 137 147 155 153 170 182
143 127 118 132 143 148 149 148 137 133 132 132 133 133 133 142 160 170 188 203 207 208
148 152 138 129 135 145 150 145 136 130 132 133 135 139 128 145 156 147 155 159 173 189
147 130 118 114 125 138 141 144 137 138 137 142 145 142 145 149 144 150 151 158 155 156
105 101 102 113 125 131 132 141 137 132 136 141 141 145 142 146 151 151 158 146 139 135
75 81 94 110 125 134 128 130 143 142 141 141 147 139 158 160 156 154 146 137 137 131
70 79 98 119 137 147 157 147 154 156 146 144 143 135 139 141 136 131 132 137 141 130
81 98 119 131 140 150 157 164 153 137 118 114 122 120 116 101 103 105 111 109 100 107
83 80 98 116 122 129 145 141 136 119 116 117 119 104 98 86 89 89 69 73 77 72
82 81 79 101 121 120 125 120 126 121 113 117 105 91 89 91 83 62 62 63 62 70
90 92 92 100 114 126 123 105 112 109 94 81 82 77 85 81 68 63 63 71 69 62
84 93 99 93 100 111 112 97 93 92 82 78 65 60 54 56 47 56 65 56 50 56
81 87 91 94 110 100 93 81 70 63 53 41 47 37 35 30 44 49 49 41 44 54
91 94 97 103 95 88 85 59 36 20 27 33 28 32 25 36 46 47 35 38 44 52

GFSNIL_con_3kmhel_066.txt.gz
Helicity
238 244 255 227 223 189 188 197 196 164 152 157 163 152 145 143 133 132 133 172 165 155
271 219 187 203 196 186 185 195 199 174 168 167 153 144 139 136 158 184 172 152 144 154
250 238 186 188 179 183 173 165 170 180 172 161 149 138 137 139 157 174 167 152 134 142
379 398 321 218 192 170 157 153 158 163 156 150 150 154 144 122 120 124 135 139 148 140
253 252 247 210 179 173 149 174 171 153 143 149 160 160 176 150 151 114 122 134 153 159
237 226 188 186 186 170 163 147 136 143 161 178 183 208 216 215 203 220 229 204 189 193
151 137 148 153 158 142 138 136 139 190 200 198 194 198 211 235 231 226 203 203 198 207
171 175 172 168 149 153 151 173 201 171 158 167 173 169 176 189 194 186 182 168 158 143
120 125 127 132 145 150 152 161 148 138 138 143 162 157 150 173 168 167 160 160 136 133
113 108 91 92 100 95 111 127 130 142 153 161 175 141 160 172 185 178 156 134 124 99
137 134 134 125 112 100 117 121 124 135 155 176 181 153 146 166 157 142 120 103 83 51
168 167 169 108 85 108 128 130 126 142 154 154 171 138 125 133 112 102 71 56 44 30
189 171 154 103 123 131 134 137 134 149 141 111 125 87 93 90 81 74 51 48 56 56
189 176 166 159 149 146 152 141 133 127 109 116 92 74 64 44 51 52 50 49 47 46

GFSNIL_con_3kmhel_072.txt.gz
Helicity
156 209 227 238 220 190 199 215 200 160 140 142 142 137 172 118 120 134 138 140 158 168
125 160 203 189 178 173 184 182 185 251 411 320 195 154 153 140 126 155 160 145 153 163
212 238 275 206 193 196 265 243 235 245 207 252 191 148 125 111 140 150 143 153 150 147
223 268 315 376 384 382 380 357 308 245 198 192 187 166 163 154 148 146 127 133 134 131
208 238 266 281 279 295 279 249 225 197 197 178 179 185 183 169 161 134 126 122 133 139
204 213 221 224 234 250 245 213 195 169 149 151 167 187 186 166 159 166 180 192 172 170
171 183 197 198 192 177 166 158 146 138 138 142 151 152 153 158 161 181 192 197 205 197
144 164 171 170 163 158 146 133 129 142 138 127 120 113 119 134 143 160 177 188 187 178
129 141 145 155 150 146 139 133 132 119 104 100 100 81 98 122 150 170 184 192 204 203
136 134 136 135 135 128 120 128 117 110 107 95 89 80 77 97 168 188 183 177 172 177
160 144 132 131 123 123 122 109 119 114 112 118 109 90 103 153 200 203 197 170 138 138
183 171 150 139 133 130 120 119 112 123 117 123 108 99 98 155 177 169 158 123 102 94
189 180 162 154 147 150 139 105 118 118 121 101 112 87 86 124 141 138 128 104 67 41
176 173 167 175 183 161 139 130 124 112 111 115 117 101 86 128 159 124 95 80 54 43

GFSNIL_con_3kmhel_075.txt.gz
Helicity
114 145 150 187 223 243 222 249 252 107 123 152 163 151 207 197 172 144 114 90 108 136
97 105 141 170 195 235 228 202 183 161 125 117 139 155 160 149 108 111 107 106 112 144
110 113 119 155 177 197 193 203 215 203 277 272 203 158 135 122 106 90 96 130 148 156
112 127 145 181 209 221 263 272 294 290 288 260 238 180 160 146 145 137 134 153 162 152
111 135 149 158 181 223 236 228 250 241 245 228 187 165 169 154 129 120 129 134 143 131
137 156 160 179 199 221 238 241 222 220 207 180 157 167 159 149 139 142 149 155 152 159
138 139 144 156 166 174 181 188 186 178 165 157 156 155 148 144 143 148 158 170 178 177
121 136 145 154 167 182 180 173 167 162 148 136 130 117 105 104 111 125 143 152 159 160
130 122 125 149 162 162 155 143 133 125 115 105 94 77 60 60 77 115 143 153 168 190
149 134 125 139 148 145 137 126 102 93 93 84 81 68 62 50 81 101 143 156 163 169
157 151 145 151 135 135 135 112 105 87 82 84 73 64 64 88 127 129 165 162 155 153
175 183 176 161 142 136 133 124 101 95 84 81 75 71 89 145 127 129 126 134 136 126
208 211 198 187 161 159 147 124 102 100 92 69 77 70 72 112 121 117 113 127 122 92
208 220 201 205 205 182 153 146 112 101 99 87 83 85 62 93 117 117 123 111 109 84

GFSNIL_con_3kmhel_078.txt.gz
Helicity
84 95 105 126 163 165 187 206 205 172 208 201 233 252 183 143 135 120 112 96 91 93
89 83 81 104 134 160 172 190 171 164 170 202 162 165 183 149 141 139 110 98 94 91
92 98 99 95 101 143 180 209 244 226 207 251 222 218 193 150 145 118 111 121 121 123
99 98 95 96 105 120 148 156 185 195 209 198 231 235 200 178 178 140 125 140 136 124
90 96 100 104 115 139 168 203 225 247 251 217 213 203 209 202 175 139 141 143 133 113
76 86 92 101 120 147 167 180 203 221 215 206 194 195 212 185 161 151 134 136 141 137
94 104 116 127 136 143 160 183 201 212 210 209 207 197 176 162 151 143 138 137 136 136
109 120 132 154 161 168 181 188 192 201 201 189 170 145 130 112 94 85 99 114 128 138
87 114 120 136 150 170 180 185 181 179 167 156 140 110 90 88 69 46 49 87 131 158
92 107 124 137 157 153 156 164 149 143 131 115 98 77 69 71 75 57 51 84 134 148
113 124 146 155 149 164 167 149 142 124 104 94 78 68 72 70 94 90 88 106 131 137
105 142 166 168 174 188 191 166 140 129 109 92 77 61 61 106 96 97 94 113 126 123
77 143 168 184 210 218 209 174 161 146 113 80 81 63 48 100 105 94 102 113 118 111
61 103 149 221 243 235 212 204 184 149 116 98 87 79 46 82 121 103 105 114 125 120

GFSNIL_con_3kmhel_081.txt.gz
Helicity
111 106 102 92 116 125 159 166 147 164 184 217 150 150 148 162 212 193 110 97 108 96
115 105 90 77 79 105 129 151 168 172 172 172 169 150 143 130 133 104 107 100 106 117
105 96 87 86 79 83 105 123 155 199 208 215 164 166 184 161 143 137 146 141 122 121
93 95 97 96 108 109 120 135 158 179 209 209 206 185 177 181 166 168 157 154 146 121
92 93 96 94 91 95 102 116 144 190 216 223 216 220 202 197 180 169 172 181 151 137
71 86 101 111 120 131 143 161 183 203 212 223 231 245 241 210 190 188 191 167 153 152
64 72 86 107 133 156 181 205 220 222 233 231 229 221 210 202 197 182 157 149 154 154
85 77 80 94 115 138 152 175 198 218 225 219 210 202 188 182 161 144 135 128 141 164
81 83 89 99 106 120 141 161 177 180 183 194 200 166 158 153 137 113 93 73 92 126
72 74 87 105 118 123 130 155 151 157 158 158 154 115 99 104 112 98 81 66 63 109
55 61 87 114 115 134 156 145 156 150 143 136 124 100 93 90 103 100 81 68 60 104
71 63 77 106 121 142 156 156 160 159 139 123 112 85 83 115 119 98 84 89 84 106
69 67 72 85 145 172 170 176 180 163 144 114 123 90 79 118 119 107 99 91 96 95
76 71 75 99 166 181 176 183 184 170 161 139 122 109 73 86 122 102 106 102 111 111

GFSNIL_con_3kmhel_084.txt.gz
Helicity
68 94 79 66 70 89 84 116 121 178 175 151 114 116 162 171 164 135 104 104 124 124
153 122 95 96 96 101 120 151 135 166 167 147 162 154 169 162 179 162 115 109 109 89
136 127 115 106 96 88 96 110 108 125 139 174 199 165 143 116 121 124 108 91 78 89
103 110 114 105 93 86 101 118 127 143 167 168 160 156 150 135 134 126 124 122 116 123
86 93 101 114 130 127 115 117 125 152 181 184 185 193 193 202 189 171 165 145 141 143
98 85 77 83 88 96 106 114 129 144 173 215 239 242 225 210 204 201 180 173 159 161
86 104 110 103 91 90 96 107 130 156 189 208 233 250 243 230 217 203 197 192 188 172
66 67 82 106 125 131 128 132 144 163 180 204 216 220 213 212 194 186 182 172 157 149
88 73 71 87 98 116 127 136 141 146 162 180 195 175 174 177 178 170 166 157 130 121
82 92 69 64 88 94 103 125 128 139 147 153 167 152 153 162 167 155 144 143 118 100
75 80 86 68 68 96 114 119 131 133 131 140 147 127 118 122 146 145 138 114 99 77
83 85 88 78 76 101 131 128 126 132 133 129 140 117 113 121 148 138 114 105 86 69
89 78 92 101 85 90 120 147 157 152 151 133 134 108 96 121 132 118 109 98 85 68
79 87 94 98 94 82 99 136 153 154 156 136 124 114 87 97 117 117 117 107 94 95

GFSNIL_con_3kmhel_087.txt.gz
Helicity
75 22 30 -64 -65 -54 -54 27 36 46 28 36 78 153 159 138 124 110 108 109 80 80
82 6 46 45 31 38 48 65 66 115 116 81 89 142 139 168 113 134 140 117 151 162
130 129 111 96 75 70 60 70 88 137 139 158 194 203 210 207 178 171 168 179 140 134
119 116 115 104 97 96 89 77 91 112 147 201 238 235 213 187 161 140 127 111 109 105
98 113 116 110 109 110 108 113 120 141 153 188 189 194 186 170 167 164 164 151 150 140
73 76 79 89 103 96 103 103 111 124 132 150 174 186 183 183 190 203 207 194 178 179
80 79 81 79 81 97 106 109 111 116 139 176 184 201 226 218 229 232 228 235 200 185
72 83 90 89 87 82 90 110 118 134 154 180 205 231 235 244 232 217 219 206 201 207
91 93 95 91 89 90 88 89 110 123 137 165 192 180 179 202 218 210 186 180 181 197
93 88 86 86 84 85 92 100 107 116 132 147 164 150 174 185 199 204 196 191 185 170
81 92 96 98 91 80 86 101 108 122 128 144 156 125 139 169 213 219 227 210 181 147
66 77 90 94 100 103 90 95 112 123 130 145 168 133 146 183 226 197 163 149 121 112
63 52 65 81 92 97 98 88 119 131 146 136 150 130 144 176 192 172 154 111 100 78
86 86 70 63 64 76 92 100 102 117 139 149 145 138 117 132 178 173 163 136 121 109

GFSNIL_con_3kmhel_090.txt.gz
Helicity
27 44 15 33 43 87 -16 66 97 52 160 115 69 156 142 184 207 172 299 146 171 122
-44 -91 -40 -41 -13 -1 23 -14 3 43 70 85 78 111 98 84 125 146 135 76 92 62
55 29 13 43 17 3 -10 21 -14 94 111 100 95 136 115 64 132 124 118 146 140 157
83 89 103 94 95 81 65 74 30 21 54 104 118 177 206 192 190 182 221 200 174 162
93 93 90 94 90 89 90 84 67 63 51 92 150 186 218 232 208 188 157 166 168 132
80 84 86 88 88 92 86 86 94 101 93 101 121 158 185 180 202 189 184 179 168 157
69 67 71 79 83 83 86 93 95 90 95 99 112 133 162 195 197 198 192 195 197 183
64 75 86 92 91 89 92 95 106 109 118 131 130 147 166 187 195 223 231 222 208 198
88 93 99 108 108 107 96 99 106 111 116 126 142 134 157 188 210 213 229 218 204 215
85 93 102 105 114 126 125 109 100 106 106 115 131 113 119 139 193 202 204 202 205 207
99 89 86 88 92 103 113 125 108 98 107 114 116 106 114 129 189 219 219 216 214 212
113 121 118 112 113 107 99 108 114 112 110 111 120 99 108 153 223 241 238 231 222 213
52 55 78 104 121 115 115 95 97 101 107 109 118 109 113 157 229 211 205 199 183 134
46 36 32 46 60 78 93 95 101 91 99 113 124 135 101 119 198 203 196 178 163 157

GFSNIL_con_3kmhel_093.txt.gz
Helicity
110 84 98 27 120 82 112 53 73 103 152 103 147 178 156 152 149 239 238 307 232 195
53 45 56 65 -14 -32 109 48 26 104 85 80 180 146 194 176 94 121 185 191 199 242
-0 -28 -11 -35 -31 -24 -36 10 44 14 7 76 60 76 123 89 94 75 104 112 123 141
46 51 41 28 21 22 52 82 41 23 74 100 119 88 90 137 157 108 95 90 53 87
71 80 82 76 72 61 53 54 55 50 53 59 63 74 74 94 131 153 156 138 144 137
59 69 79 85 85 79 71 65 66 61 64 64 85 93 105 118 128 143 171 170 150 167
47 49 55 59 73 83 83 79 76 81 86 89 74 79 97 121 154 172 169 177 164 157
36 47 54 62 73 79 82 90 86 89 96 96 106 104 95 109 126 145 151 142 137 143
71 74 79 81 81 81 97 107 110 110 103 107 112 125 118 129 147 152 164 177 163 178
71 78 86 86 90 97 101 104 111 124 124 113 112 109 112 118 160 185 189 194 216 217
110 118 117 108 90 81 91 103 117 124 126 124 126 112 100 108 147 165 175 184 190 207
121 126 139 140 120 97 90 96 109 121 139 142 134 133 110 124 164 167 162 180 192 192
45 41 56 75 100 106 115 95 81 95 100 110 128 143 153 137 192 191 179 188 204 150
56 62 38 20 45 56 92 116 106 130 123 119 103 105 113 103 189 176 187 190 190 182

GFSNIL_con_3kmhel_096.txt.gz
Helicity
187 74 121 110 226 166 124 98 284 209 258 235 188 61 51 107 153 112 100 133 172 211
353 254 152 92 82 41 102 116 104 81 19 55 60 124 202 189 164 173 130 183 221 219
150 74 38 28 91 32 -10 85 95 181 102 133 66 62 125 157 187 194 237 194 119 152
21 46 1 -10 -6 -12 -1 12 41 36 27 25 45 89 106 96 113 113 83 116 101 107
30 32 35 42 50 52 44 46 44 43 44 45 40 42 63 81 102 117 141 151 137 111
39 38 44 46 53 57 63 66 72 76 75 81 88 85 77 72 93 107 113 120 159 136
34 41 50 52 52 59 61 65 73 67 67 83 99 104 105 109 110 120 140 166 168 159
4 9 25 39 57 73 82 82 83 86 102 102 89 92 113 113 116 117 110 132 155 175
50 58 48 34 25 23 38 60 93 127 136 138 129 147 138 116 123 127 125 126 122 120
56 54 53 56 52 60 53 38 51 79 103 143 153 180 191 178 138 135 148 157 173 158
79 90 106 108 97 82 59 54 58 67 78 96 122 177 190 205 184 165 148 153 167 201
108 114 120 111 94 87 69 78 77 71 66 66 90 162 190 191 168 182 181 157 155 164
84 91 114 92 108 96 88 50 12 32 52 68 86 134 150 165 141 176 184 195 176 138
124 89 52 39 22 1 11 47 70 61 68 79 75 114 188 192 144 141 164 173 187 177

GFSNIL_con_3kmhel_099.txt.gz
Helicity
155 166 93 58 36 58 152 165 136 119 118 139 192 188 171 153 111 56 130 166 127 147
170 218 315 239 183 195 178 131 79 123 201 212 147 203 171 164 199 145 83 91 105 128
108 102 117 119 171 197 186 134 90 118 84 30 35 48 100 151 191 119 114 127 109 133
78 89 76 -9 -1 -23 -19 -4 13 70 54 62 88 65 56 30 84 91 110 126 169 219
30 37 41 30 24 32 26 28 38 42 41 39 35 42 44 63 74 124 111 131 142 155
31 45 48 34 36 28 42 44 48 55 58 70 69 66 58 68 65 74 68 72 93 72
18 18 18 20 29 27 27 37 53 71 78 81 78 86 99 108 95 65 60 89 95 105
4 18 32 44 43 38 26 31 30 49 74 93 104 101 120 114 119 120 104 85 98 119
23 19 9 16 25 46 65 83 97 105 92 101 105 147 178 169 131 132 120 107 111 114
31 47 51 40 19 21 14 22 56 80 93 119 137 195 222 203 134 134 153 146 122 112
45 51 56 67 73 85 77 73 49 40 42 71 104 155 187 224 165 160 137 142 153 147
37 41 37 44 48 34 19 51 58 58 56 46 55 84 126 171 138 124 147 146 145 151
28 46 44 36 25 -9 -8 2 14 10 -5 0 -22 40 103 104 81 108 100 115 106 141
118 116 119 129 137 122 107 75 47 14 1 3 4 49 144 179 156 130 114 109 113 110

GFSNIL_con_3kmhel_102.txt.gz
Helicity
103 88 119 166 131 143 129 112 36 75 118 153 144 158 179 253 215 252 125 113 112 105
146 145 207 221 235 270 183 158 179 163 114 111 69 107 153 175 302 287 290 117 137 137
137 107 175 161 126 126 168 152 172 162 201 105 153 41 87 59 182 245 282 223 169 166
166 147 93 111 109 18 56 48 -0 11 46 75 89 97 110 51 47 73 110 198 219 190
110 55 37 46 79 56 22 47 44 27 26 32 37 40 36 35 76 37 69 -9 10 96
14 29 31 28 42 45 41 33 40 47 49 49 53 57 60 66 56 35 55 54 76 76
-4 -4 -10 -11 1 -13 -11 5 33 39 48 58 60 65 78 66 54 61 63 60 57 57
-6 -10 -7 -2 4 -3 -0 14 27 38 51 58 62 79 116 95 79 77 86 87 73 85
-20 -25 -22 -18 -12 -17 -6 9 14 25 20 38 55 114 158 138 100 100 94 87 104 111
-9 -5 -3 -6 -9 -0 2 9 16 19 24 47 76 138 148 144 102 106 102 110 105 92
43 42 42 40 37 38 32 28 15 10 11 21 68 145 174 185 127 134 127 123 123 114
32 16 10 7 -1 -13 -21 -24 -33 -19 -2 4 1 51 75 110 115 133 152 158 138 130
7 9 19 18 21 24 31 42 48 44 27 14 28 23 26 41 -11 -15 49 121 174 179
46 47 37 46 67 62 76 91 96 103 98 88 77 61 45 79 67 40 31 68 99 145

GFSNIL_con_3kmhel_108.txt.gz
Helicity
142 102 108 132 136 145 160 167 176 183 171 191 181 190 167 127 86 105 164 145 163 232
113 127 147 154 146 159 183 213 179 184 174 192 205 173 220 135 170 146 105 130 115 166
202 227 181 174 176 189 218 213 228 241 237 202 215 177 158 185 138 189 187 118 84 106
168 182 217 112 107 127 102 98 185 119 116 144 111 130 160 159 131 170 152 89 130 110
201 282 142 156 156 146 102 112 118 135 151 130 89 62 68 89 73 89 103 70 79 85
86 111 121 100 71 48 45 54 71 38 35 39 52 64 66 69 85 86 71 51 49 45
52 39 24 23 25 27 34 36 44 41 49 53 57 54 82 85 82 90 95 100 86 85
16 2 -3 5 8 14 23 23 20 28 39 47 51 46 67 71 67 76 78 87 98 102
14 3 6 16 16 16 16 21 14 20 23 29 29 53 70 74 81 103 112 105 101 95
11 8 10 9 12 15 16 20 31 38 40 48 65 93 107 112 89 89 95 105 109 112
40 42 43 42 40 35 30 26 22 13 2 3 -4 -14 -3 26 35 51 67 82 97 119
58 45 40 35 37 36 32 24 18 11 8 -9 -14 -33 -40 -35 -42 -63 -58 -25 40 62
56 45 39 41 44 42 45 52 56 60 50 44 40 40 50 66 47 42 40 28 23 -10
45 36 32 36 36 38 36 43 53 64 68 56 60 58 80 96 88 90 98 100 97 81

GFSNIL_con_3kmhel_111.txt.gz
Helicity
142 167 130 77 49 73 118 154 199 187 183 187 180 159 171 159 150 164 130 87 108 129
75 80 78 98 115 139 178 199 225 207 203 196 186 172 200 177 178 192 155 192 206 200
140 148 163 159 185 186 181 195 194 225 191 172 176 190 153 193 165 149 131 179 213 190
119 85 112 131 169 161 115 116 160 144 155 173 140 101 178 207 189 156 149 143 123 140
108 106 134 178 175 176 142 107 102 90 92 121 98 72 135 131 127 149 116 52 117 89
65 57 89 85 97 104 97 71 50 48 63 82 76 71 62 70 58 54 50 61 67 59
21 28 36 22 13 36 45 39 36 45 49 46 64 62 84 78 82 85 78 74 72 74
16 25 29 33 26 26 23 18 19 20 33 40 47 57 65 76 84 85 87 91 110 99
27 24 23 23 23 28 32 39 41 51 54 62 67 82 86 89 87 91 90 93 109 112
33 30 33 29 25 30 35 40 45 52 50 48 52 61 70 81 61 56 66 83 93 105
38 36 36 35 37 40 44 47 45 36 32 32 25 22 22 32 34 45 56 51 62 81
60 52 49 46 44 38 31 20 16 7 2 -6 -13 -23 -24 -24 -27 -38 -37 -52 -32 -14
51 48 43 36 25 22 14 13 18 15 7 -2 11 5 26 27 22 26 36 48 45 45
62 53 46 41 36 32 29 30 26 26 38 40 45 46 60 50 59 65 74 73 76 84

GFSNIL_con_3kmhel_114.txt.gz
Helicity
71 22 70 99 44 161 133 123 124 145 172 178 176 166 154 137 127 150 153 164 167 170
93 78 95 76 116 126 51 81 140 148 168 186 195 186 166 113 143 139 176 151 187 166
91 65 36 47 75 60 63 90 119 139 170 198 180 161 162 136 133 111 84 135 148 137
50 50 44 58 64 52 46 96 104 110 91 110 113 89 98 86 112 128 134 112 139 127
31 46 45 39 63 86 133 127 112 124 130 126 129 139 117 109 110 90 66 113 129 175
27 28 24 26 25 42 46 39 36 50 52 55 60 65 67 78 99 103 87 81 63 70
30 29 27 23 21 30 35 33 33 42 43 37 45 56 46 44 45 62 67 82 80 95
27 25 21 24 23 25 27 29 32 40 46 49 65 61 46 48 46 61 64 66 67 83
43 28 21 18 18 22 29 37 47 54 57 64 66 79 76 70 57 68 73 78 72 63
62 38 30 32 34 38 44 42 40 41 43 47 49 67 70 71 44 56 65 73 78 90
79 56 50 44 39 33 23 22 26 34 35 44 47 51 51 52 45 53 66 70 78 85
76 68 65 65 55 42 42 38 37 38 42 40 37 7 3 35 50 48 42 31 19 21
88 81 71 63 56 50 45 38 40 37 31 -5 3 -21 -2 2 -11 -24 -18 5 13 8
85 77 62 60 58 52 54 58 51 30 22 27 37 50 65 58 43 32 33 35 34 44

GFSNIL_con_3kmhel_117.txt.gz
Helicity
63 4 73 -7 -2 44 -5 -37 61 116 244 340 94 82 93 126 138 129 121 139 146 164
7 11 29 -10 4 10 69 35 80 37 29 57 104 120 146 153 169 150 120 128 112 127
25 10 4 1 11 10 39 90 60 44 72 87 99 111 131 133 149 170 150 147 132 118
42 26 22 20 21 17 38 47 37 34 49 70 84 91 102 103 116 92 92 71 102 104
53 47 36 22 38 41 44 51 54 72 82 80 102 79 85 101 119 125 126 117 86 104
66 65 54 45 38 42 52 56 58 52 59 67 82 64 53 51 75 88 85 99 97 79
80 66 52 47 47 48 47 47 48 53 49 50 75 56 52 58 85 106 109 114 102 89
71 66 61 57 51 50 54 55 59 63 67 75 79 80 77 64 69 84 94 90 83 83
87 76 66 58 55 61 63 62 61 59 56 57 55 63 69 65 59 76 94 108 107 90
95 82 71 65 66 67 65 57 55 50 51 66 64 84 92 92 69 81 88 100 119 136
113 93 77 71 72 65 55 52 49 55 62 71 82 90 97 89 87 91 96 91 95 91
114 96 82 77 74 65 59 53 50 49 62 76 89 84 79 86 76 72 68 60 57 64
114 94 81 83 87 80 73 62 61 68 67 73 81 93 105 86 51 45 51 51 47 38
106 95 93 96 95 84 77 77 79 69 67 72 75 72 77 68 46 35 32 37 28 31

GFSNIL_con_3kmhel_120.txt.gz
Helicity
16 -14 -42 -9 -6 -6 28 41 -1 44 26 79 150 172 183 164 120 137 192 110 100 108
43 30 -13 -4 9 -14 -1 0 -20 30 35 10 26 64 145 162 76 77 100 127 139 151
46 54 49 50 43 36 30 47 31 21 39 54 37 43 46 53 78 102 105 118 130 130
50 54 50 52 53 45 49 45 33 24 39 51 55 74 64 53 86 103 114 114 114 119
61 53 52 51 43 44 52 57 61 46 46 42 34 31 43 56 69 95 115 123 119 133
64 60 49 42 44 50 52 60 67 71 77 84 80 63 62 60 69 72 77 89 96 97
75 70 65 60 58 56 56 62 56 58 65 77 80 77 78 83 102 119 126 130 112 99
91 89 84 80 74 73 78 74 71 72 68 66 59 58 56 50 62 82 101 112 115 111
102 100 92 86 82 86 87 86 84 79 72 69 63 72 80 74 71 70 73 85 100 109
112 105 91 85 81 79 80 83 81 74 69 68 50 55 63 61 44 60 73 79 88 101
134 106 99 96 94 90 91 87 82 79 79 80 79 95 89 88 69 63 67 75 85 89
136 124 114 102 98 92 88 83 80 78 82 91 92 109 117 122 91 76 80 90 90 87
140 130 115 107 97 89 89 91 97 101 102 97 106 117 124 123 90 91 91 76 73 76
140 121 113 108 106 104 110 109 106 107 108 108 114 116 115 101 87 72 60 52 40 40

GFSNIL_con_3kmhel_126.txt.gz
Helicity
62 58 54 44 33 28 31 35 37 35 33 33 38 41 35 30 28 89 76 112 128 104
63 62 54 47 43 36 34 30 34 36 39 43 48 50 41 47 31 -20 46 75 102 83
59 60 53 50 47 40 35 38 41 45 53 57 64 62 55 42 49 53 43 25 41 50
73 69 61 54 43 38 36 40 42 47 57 65 68 67 59 57 54 37 43 54 54 64
97 89 75 60 48 44 45 42 43 48 53 59 64 65 70 64 54 71 85 85 73 67
116 108 91 78 67 62 55 51 56 58 54 44 39 41 39 47 58 56 48 49 54 60
134 120 106 95 85 73 62 54 53 63 64 61 50 46 45 52 48 46 58 63 62 53
147 140 131 117 100 86 72 62 61 64 66 63 55 53 59 57 57 57 54 52 63 72
171 160 143 126 103 87 80 82 81 74 66 62 63 51 62 72 80 79 77 76 75 70
197 188 163 135 113 93 84 87 85 84 80 78 72 71 80 124 91 81 72 69 68 73
233 215 180 148 117 104 98 92 91 88 92 96 87 78 78 115 102 92 79 77 73 76
263 230 187 142 111 103 103 103 104 109 111 104 92 85 90 112 110 98 86 80 79 76
263 219 180 144 123 110 109 104 118 119 113 92 93 81 78 93 116 108 104 90 76 47
231 202 166 148 142 128 110 116 124 114 109 102 94 86 79 85 117 110 104 88 66 72

GFSNIL_con_3kmhel_129.txt.gz
Helicity
70 66 60 58 55 49 47 39 37 37 40 46 49 55 59 67 71 68 66 58 -4 48
84 73 59 56 53 49 43 39 38 35 37 43 53 55 51 53 56 56 50 53 47 48
87 81 79 69 60 51 42 40 37 36 38 41 48 54 55 48 46 40 39 29 26 27
109 104 94 75 65 56 45 44 42 35 37 44 52 56 56 54 55 47 42 45 50 50
126 117 98 88 82 70 55 46 43 45 48 50 51 51 52 53 55 65 62 42 38 45
138 128 110 102 91 78 65 56 52 54 59 56 48 45 43 45 49 45 53 61 59 52
164 155 147 138 122 100 80 64 64 65 58 54 48 42 40 42 45 47 45 44 44 56
197 183 175 158 135 115 92 76 72 65 61 59 52 55 54 57 60 59 53 53 57 57
234 217 194 172 164 137 98 81 73 71 69 69 65 54 55 84 74 67 65 62 67 69
272 251 216 191 193 151 114 97 75 72 79 75 77 69 73 94 90 82 79 72 67 73
300 272 250 233 197 163 134 101 91 83 73 78 87 83 79 88 92 82 76 76 77 82
314 312 290 247 208 175 142 116 98 96 95 93 80 70 74 87 96 84 81 84 84 79
309 329 293 236 217 191 147 114 108 92 99 87 79 73 76 85 94 86 90 85 90 70
292 312 270 260 240 186 139 128 103 93 105 91 82 81 66 73 91 88 87 81 76 54

GFSNIL_con_3kmhel_132.txt.gz
Helicity
72 72 67 62 61 62 61 60 55 53 50 51 55 61 62 64 73 77 83 99 107 87
90 86 80 73 69 67 64 58 57 52 51 54 59 60 62 66 75 73 78 83 80 77
124 113 106 96 82 76 69 60 56 53 52 51 56 60 63 67 71 72 72 68 74 75
159 145 124 104 90 77 70 61 53 53 53 58 60 66 66 66 68 68 70 64 59 56
187 168 138 114 105 95 76 73 66 62 57 55 58 61 67 67 67 66 68 73 67 63
233 202 165 147 134 115 99 85 80 62 53 56 58 54 57 61 64 69 75 74 74 72
233 195 171 167 157 137 121 104 97 82 71 67 59 51 51 51 56 67 73 66 61 65
223 219 217 206 180 158 137 118 113 93 79 74 70 66 56 56 61 61 56 57 66 65
241 264 256 233 214 191 158 141 132 99 85 78 78 69 51 66 79 64 60 64 66 71
185 234 255 250 237 197 163 154 139 111 92 75 71 70 66 68 75 70 68 71 65 67
164 211 275 293 253 213 190 169 155 128 103 88 80 76 83 84 76 71 62 69 71 69
170 203 306 337 290 258 226 193 168 137 108 87 83 79 77 87 89 76 62 68 65 76
154 193 298 349 356 290 252 208 192 146 122 83 78 82 84 76 100 75 74 69 72 70
141 173 210 299 372 308 254 227 185 152 123 89 84 81 75 73 97 87 75 72 78 86

GFSNIL_con_3kmhel_135.txt.gz
Helicity
98 102 91 86 88 84 78 74 69 62 58 58 54 60 68 69 77 76 82 78 80 87
126 127 122 109 103 93 89 82 75 62 58 57 59 68 69 73 84 78 83 79 76 78
148 148 143 133 111 99 99 94 83 71 61 57 59 64 69 74 76 73 79 82 75 79
177 206 197 177 160 147 131 117 93 78 66 60 64 65 67 76 81 77 79 77 81 77
206 263 244 205 189 180 155 135 115 95 75 67 70 69 70 80 80 72 74 75 76 82
194 226 221 199 187 183 171 152 135 113 91 88 91 82 78 80 76 75 76 85 90 89
175 203 202 209 224 231 202 181 164 137 116 110 102 86 78 78 72 66 85 90 87 82
143 158 190 213 245 260 240 217 189 162 137 120 113 98 87 85 78 67 74 88 73 76
132 144 178 228 254 285 261 243 222 198 158 149 132 100 103 86 76 88 82 85 79 88
137 158 186 230 278 313 305 284 248 213 177 146 130 98 85 73 81 91 96 94 82 83
155 152 173 218 251 278 305 282 260 237 187 157 135 97 88 76 86 85 88 81 76 88
152 149 168 210 256 278 323 327 311 258 212 168 144 109 93 88 94 91 75 69 82 78
136 147 165 181 233 263 308 343 331 270 177 165 155 118 109 96 110 87 102 106 92 54
125 143 158 169 225 270 306 362 337 293 171 160 147 128 107 89 108 119 126 133 113 69

GFSNIL_con_3kmhel_138.txt.gz
Helicity
94 135 143 138 153 142 132 119 119 97 76 67 73 76 80 86 90 101 98 98 95 87
143 166 182 170 185 173 147 147 120 108 86 78 75 76 78 83 92 104 97 92 88 82
180 191 197 196 192 185 155 152 146 117 104 95 86 82 85 87 95 99 93 97 91 82
199 213 230 253 232 236 228 214 199 160 140 120 105 98 93 89 89 103 96 97 93 77
187 214 239 267 256 228 218 217 200 181 163 141 117 105 98 96 113 108 97 91 94 82
169 204 242 277 272 242 241 250 230 232 201 167 141 130 109 104 116 102 88 86 84 77
159 180 216 261 285 286 282 296 276 254 222 181 168 146 119 110 113 102 104 100 79 79
142 161 183 218 266 281 306 325 308 262 237 220 208 178 147 125 119 114 107 106 92 88
131 149 185 204 240 291 322 362 353 300 273 251 216 146 104 144 152 128 128 110 99 100
139 158 177 189 209 257 331 388 385 342 306 254 226 154 117 117 177 152 139 127 112 104
122 133 154 172 202 254 346 379 409 377 346 299 239 169 112 93 162 165 134 123 109 101
93 118 145 166 197 249 342 385 400 398 373 337 265 171 143 117 170 169 137 123 109 106
92 105 123 150 185 241 320 364 393 385 387 299 256 185 159 121 190 171 155 130 116 68
110 123 122 142 171 217 266 331 357 364 383 332 264 202 111 107 183 175 187 161 162 134

GFSNIL_con_3kmhel_144.txt.gz
Helicity
148 159 137 119 116 122 136 126 104 110 112 97 85 79 78 85 72 67 66 60 71 83
145 150 136 124 125 138 138 130 127 131 129 121 113 105 99 98 82 83 80 77 84 103
137 140 135 132 132 154 154 159 161 156 161 155 148 138 136 133 115 116 107 106 108 111
114 130 134 144 164 184 181 191 181 182 190 195 190 184 188 171 155 146 130 124 119 105
107 120 125 140 151 185 193 213 206 217 210 211 211 211 212 193 181 165 149 135 128 115
83 86 94 106 124 149 164 174 204 232 234 232 234 228 218 204 187 178 166 155 148 132
62 61 66 75 88 105 132 148 174 207 231 253 259 258 250 240 211 197 179 166 159 151
60 58 59 64 71 80 95 107 145 172 208 231 270 266 287 276 253 236 216 198 182 159
55 58 64 68 72 79 88 105 138 170 192 222 248 209 248 286 295 267 241 220 197 171
66 74 79 82 88 98 105 119 125 138 166 193 209 167 218 248 355 299 273 260 230 193
56 66 81 91 98 109 120 124 129 142 164 184 191 132 176 223 327 338 294 278 235 186
62 70 90 106 111 128 150 162 176 183 174 189 178 131 145 196 307 358 293 290 247 181
87 96 101 116 131 158 180 167 181 183 208 160 171 130 98 154 280 303 293 300 249 123
119 127 125 140 159 162 167 165 163 172 184 195 177 165 85 88 238 284 289 294 226 155